Flag Weather past 2 weeks in Midway, Midway Atoll, U.S.A.

Now
79 °F

Passing clouds.


Feels Like: 83 °F
Forecast: 77 / 84 °F
Wind: 18 mph from Southeast

Location: Midway Island Naval Air Facility

Current Time: Oct 30, 2014 at 5:46:19 AM

Latest Report: Oct 30, 2014 at 4:56 AM


Visibility: 7 mi

Pressure: 30.94 "Hg

Humidity: 87%

Dew point: 75 °F

Location of MidwayLocation

Historic Weather in Midway — Graph

°F

Midway temperature yesterday

Maximum temperature yesterday: 79 °F (at 9:40 PM)
Minimum temperature yesterday: 72 °F (at 7:10 AM)
Average temperature yesterday: 74 °F

Past Weeks' High & Low Weather Summary

 TemperatureHumidityPressure
High87 °F (Oct 15, 11:56 AM)100% (Oct 19, 6:17 AM)31.00 "Hg (Oct 19, 6:17 AM)
Low70 °F (Oct 28, 5:33 AM)56% (Oct 16, 12:56 PM)28.05 "Hg (Oct 15, 8:56 PM)
Average78 °F82%30.08 "Hg
* Reported Oct 15 3:56 AM — Oct 30 3:56 AM, Midway, Weather by CustomWeather, © 2014

Note: Actual official high and low records may vary slightly from our data, if they occured in-between our weather recording intervals... More about our weather records

Advertising

Midway weather history for previous 24 hours

 ConditionsComfort  
Time TempWeatherWind HumidityBarometerVisibility
3:56 AM
Oct 30
79 °FPartly cloudy.22 mph87%30.94 "Hg7 mi
3:38 AM79 °FPartly cloudy.23 mph89%30.04 "Hg7 mi
2:56 AM79 °FPassing clouds.25 mph82%30.94 "Hg9 mi
1:56 AM79 °FPassing clouds.28 mph84%30.95 "Hg8 mi
12:56 AM78 °FClear.30 mph85%30.97 "Hg10 mi
11:56 PM
Oct 29
78 °FClear.29 mph85%30.98 "Hg9 mi
10:56 PM77 °FClear.23 mph85%31.00 "Hg9 mi
9:56 PM77 °FLight rain. Passing clouds.30 mph87%28.05 "Hg7 mi
9:40 PM79 °FPartly cloudy.26 mph84%30.10 "Hg7 mi
8:56 PM77 °FLight rain. Fog.29 mph90%28.06 "Hg6 mi
8:34 PM77 °FLight rain. Passing clouds.25 mph89%30.10 "Hg7 mi
7:56 PM76 °FLight rain. Passing clouds.25 mph90%28.07 "Hg7 mi
6:56 PM76 °FLight rain. Partly cloudy.28 mph90%28.07 "Hg8 mi
5:56 PM76 °FLight rain. Fog.25 mph90%28.05 "Hg5 mi
4:56 PM76 °FLight rain. Fog.30 mph90%30.99 "Hg5 mi
4:24 PM75 °FLight rain. Fog.26 mph94%30.07 "Hg4 mi
3:56 PM76 °FLight rain. Fog.29 mph90%30.97 "Hg2 mi
3:33 PM75 °FLight rain. Fog.25 mph94%30.07 "Hg1 mi
3:15 PM75 °FRain. Fog.29 mph89%30.06 "Hg1 mi
2:56 PM75 °FLight rain. Fog.28 mph91%30.98 "Hg1 mi
2:05 PM75 °FLight rain. Fog.30 mph89%30.07 "Hg4 mi
1:56 PM77 °FLight rain. Broken clouds.36 mph85%30.98 "Hg5 mi
1:39 PM75 °FLight rain. Fog.35 mph89%30.07 "Hg4 mi
1:28 PM75 °FRain. Fog.33 mph89%30.08 "Hg1 mi
12:56 PM76 °FLight rain. Broken clouds.35 mph85%31.00 "Hg4 mi
12:43 PM73 °FRain. Fog.37 mph94%30.09 "Hg1 mi
12:24 PM75 °FLight rain. Fog.37 mph89%30.10 "Hg4 mi
12:15 PM73 °FLight rain. Fog.37 mph94%30.10 "Hg2 mi
11:56 AM75 °FLight rain. Fog.32 mph88%28.06 "Hg3 mi
11:39 AM75 °FLight rain. Fog.41 mph89%30.10 "Hg4 mi
11:30 AM75 °FLight rain. Fog.40 mph89%30.11 "Hg2 mi
11:03 AM73 °FRain. Fog.37 mph94%30.14 "Hg1 mi
10:56 AM73 °FHeavy rain. Fog.35 mph97%28.09 "Hg1 mi
10:31 AM73 °FLight rain. Fog.43 mph94%30.12 "Hg2 mi
9:56 AM74 °FLight rain. Fog.37 mph90%28.09 "Hg1 mi
9:32 AM73 °FLight rain. Fog.45 mph94%30.14 "Hg3 mi
9:17 AM73 °FRain. Fog.41 mph94%30.14 "Hg2 mi
8:56 AM74 °FLight rain. Fog.41 mph90%28.09 "Hg2 mi
8:35 AM73 °FLight rain. Fog.46 mph94%30.13 "Hg1 mi
8:19 AM72 °FLight rain. Fog.26 mph94%30.14 "Hg1 mi
7:56 AM74 °FLight rain. Fog.36 mph90%28.09 "Hg5 mi
7:28 AM73 °FLight rain. Fog.39 mph94%30.13 "Hg4 mi
7:10 AM72 °FRain. Fog.26 mph100%30.13 "Hg2 mi
6:58 AM73 °FLight rain. Fog.26 mph94%30.13 "Hg3 mi
6:17 AM73 °FLight rain. Fog.26 mph94%30.14 "Hg4 mi
6:00 AM73 °FLight rain. Fog.31 mph94%30.13 "Hg2 mi
5:56 AM73 °FLight rain. Fog.31 mph93%28.09 "Hg1 mi
5:27 AM73 °FLight rain. Partly cloudy.30 mph94%30.12 "Hg8 mi
5:19 AM73 °FLight rain. Fog.25 mph94%30.12 "Hg5 mi
Weather by CustomWeather, © 2014

See weather overviewHow to use our weather pages